This demonstration page uses our WeatherBlox Daily Observations layout. Learn more.

Left ArrowRight Arrow

39.08367, -84.50855

Hourly Observations for April 11, 2018

Temp ( °F °C ) Dew Point ( °F °C ) Humidity (%) Winds ( mph kmh ) Pressure ( in mb ) Visibility ( mi km ) Precip ( " mm )
1:53 am 01:53 Clear 33 0.6 31 -0.6 92 92 N N/A 30.24 1024 9 14 N/A
2:53 am 02:53 Clear 32 undefined 30 -1.1 92 92 N N/A 30.24 1024 8 13 N/A
3:53 am 03:53 Clear 31 -0.6 30 -1.1 96 96 N N/A 30.23 1024 7 11 N/A
4:53 am 04:53 Mostly Clear 31 -0.6 30 -1.1 96 96 N N/A 30.22 1024 7 11 N/A
5:53 am 05:53 Cloudy with Mist and Fog 30 -1.1 30 -1.1 100 100 S 3 6 30.21 1023 5 8 N/A
6:53 am 06:53 Mostly Clear with Mist and Fog 30 -1.1 30 -1.1 100 100 N N/A 30.22 1023 5 8 N/A
7:53 am 07:53 Partly Cloudy with Mist and Fog 31 -0.6 30 -1.1 96 96 N N/A 30.22 1023 6 10 N/A
8:53 am 08:53 Sunny with Mist and Fog 36 2.2 34 1.1 93 93 N N/A 30.23 1024 6 10 N/A
9:53 am 09:53 Partly Cloudy 42 5.6 32 undefined 68 68 S 8 13 30.23 1024 10 16 N/A
10:53 am 10:53 Sunny 47 8.3 32 undefined 56 56 SSW 7 11 30.22 1023 10 16 N/A
11:53 am 11:53 Sunny 51 10.6 33 0.6 50 50 S 10 17 30.21 1023 10 16 N/A
12:53 pm 12:53 Sunny 55 12.8 35 1.7 47 47 SW 14 22 30.17 1022 10 16 N/A
1:53 pm 13:53 Sunny 58 14.4 37 2.8 46 46 S 16 26 30.13 1020 10 16 N/A
2:53 pm 14:53 Sunny 61 16.1 39 3.9 44 44 SSW 16 26 30.10 1019 10 16 N/A
3:53 pm 15:53 Sunny 63 17.2 39 3.9 41 41 SW 17 28 30.08 1019 10 16 N/A
4:53 pm 16:53 Sunny 64 17.8 39 3.9 40 40 SSW 16 26 30.06 1018 10 16 N/A
5:53 pm 17:53 Mostly Sunny 63 17.2 39 3.9 41 41 SW 12 19 30.05 1018 10 16 N/A
6:53 pm 18:53 Sunny 62 16.7 39 3.9 43 43 SSW 12 19 30.04 1017 10 16 N/A
7:53 pm 19:53 Sunny 59 15 39 3.9 48 48 SSW 12 19 30.04 1017 10 16 N/A
8:53 pm 20:53 Clear 54 12.2 38 3.3 55 55 SSW 8 13 30.04 1017 10 16 N/A
9:53 pm 21:53 Clear 54 12.2 39 3.9 57 57 SSW 6 9 30.05 1018 10 16 N/A
10:53 pm 22:53 Clear 54 12.2 40 4.4 59 59 S 7 11 30.04 1017 10 16 N/A
11:53 pm 23:53 Clear 54 12.2 40 4.4 59 59 SSW 7 11 30.03 1017 10 16 N/A

Powered by AerisWeather